Regional Weather Roundup
Issued by NWS

Home | Current Version | Previous Version | Text Only | Print | Product List | Glossary Off
Versions: 1 2 3 4 5 6 7 8 9 10 11 12 13 14 15 16 17 18 19 20 21 22 23 24 25 26 27 28 29 30 31 32 33 34 35 36 37 38 39 40 41 42 43 44 45 46 47 48 49 50

000
ASUS43 KDMX 242203
RWRIA

WEATHER ROUNDUP FOR IOWA
NATIONAL WEATHER SERVICE DES MOINES IA
500 PM CDT TUE MAY 24 2016

NOTE: "FAIR" INDICATES FEW OR NO CLOUDS BELOW 12,000 FEET WITH NO
SIGNIFICANT WEATHER AND/OR OBSTRUCTIONS TO VISIBILITY.

* - THESE STATIONS ARE NOT NWS STATIONS...THUS NOT UNDER NWS
QUALITY CONTROL.  THEY ALSO DO NOT REPORT WEATHER SUCH
AS PRECIPITATION OR FOG.

IAZ001>003-012>014-020>022-031>034-043>046-242300-
   NORTHWEST IOWA

CITY           SKY/WX    TMP DP  RH WIND       PRES   REMARKS
CARROLL *      MOSUNNY   79  66  65 MISG      29.90F HX  81
CHEROKEE *     SUNNY     81  63  53 CALM      29.89S HX  82
DENISON *      MOSUNNY   77  66  69 SE9       29.88S
LE MARS *      SUNNY     82  63  51 VRB5      29.88F HX  83
ORANGE CITY *  SUNNY     82  63  51 SE6       29.89S HX  83
SHELDON *      SUNNY     82  61  47 VRB5      29.88S HX  83
SIOUX CITY     SUNNY     82  66  58 SE12      29.86F HX  84
SPENCER        SUNNY     82  61  48 SE6       29.89F HX  83
STORM LAKE *   SUNNY     81  54  39 SE7       29.91S HX  80
$$

IAZ055>058-069>071-079>083-090>094-242300-
   SOUTHWEST IOWA

CITY           SKY/WX    TMP DP  RH WIND       PRES   REMARKS
ATLANTIC *     MOSUNNY   81  57  44 VRB5      29.89F HX  81
AUDUBON *        N/A     81  64  57 SE3       29.91F HX  82
CLARINDA *       N/A     82  63  51 MISG      29.90F HX  83
COUNCIL BLFS * SUNNY     79  61  53 VRB7G13   29.89F HX  80
CRESTON *      SUNNY     81  61  50 SE6G13    29.92F HX  81
HARLAN  *        N/A    N/A N/A N/A MISG        N/A
LAMONI         CLOUDY    80  61  52 VRB6      29.91F HX  81
RED OAK *      SUNNY     82  61  47 S8        29.89F HX  83
SHENANDOAH *   SUNNY     82  61  47 NE3       29.89F HX  83
$$

IAZ047>049-059>061-072>074-084-242300-
   CENTRAL IOWA

CITY           SKY/WX    TMP DP  RH WIND       PRES   REMARKS
AMES           SUNNY     79  65  62 VRB5      29.90F HX  81
ANKENY *       SUNNY     81  64  57 CALM      29.89F HX  82
BOONE *        MOSUNNY   77  64  65 SE5       29.90F
CHARITON *     CLOUDY    82  61  47 S14       29.90F HX  83
DES MOINES     PTSUNNY   83  60  45 SW7       29.89F HX  83
GRINNELL*      MOSUNNY   82  59  44 SW6       29.90F HX  82
KNOXVILLE *    MOSUNNY   84  59  42 S12       29.88F HX  84
MARSHALLTOWN   SUNNY     81  62  52 SE5       29.89F HX  82
NEWTON *       MOSUNNY   82  61  47 W7        29.89F HX  83
PERRY *          N/A     79  68  69 E3        29.90F HX  81
$$

IAZ004>006-015-016-023>025-035-036-242300-
   NORTH CENTRAL IOWA

CITY           SKY/WX    TMP DP  RH WIND       PRES   REMARKS
ALGONA *       CLOUDY    81  63  54 S9G17     29.90F HX  82
CLARION *      SUNNY     79  64  61 S5        29.92S HX  81
ESTHERVILLE    PTSUNNY   81  59  47 S8        29.89F HX  81
FORT DODGE *   MOSUNNY   79  63  57 E6        29.92S HX  80
MASON CITY     SUNNY     78  63  59 MISG      29.93F HX  80
FOREST CITY *  MOSUNNY   77  59  53 SE5       29.93S
WEBSTER CITY * MOSUNNY   81  64  57 VRB5      29.89F HX  82
IOWA FALLS *     N/A     82  61  47 SW6       29.92S HX  83
$$

IAZ007>011-017>019-026>030-037>042-050>054-066-242300-
   NORTHEAST IOWA

CITY           SKY/WX    TMP DP  RH WIND       PRES   REMARKS
CEDAR RAPIDS   MOSUNNY   84  65  52 S9        29.90S HX  86
CHARLES CITY * MOSUNNY   82  57  42 S7G17     29.91F HX  82
CLINTON *      PTSUNNY   85  60  42 SW14      29.91F HX  85
DECORAH *      SUNNY     81  55  41 S5        29.91F HX  80
DUBUQUE        MOSUNNY   81  62  52 SW7       29.93F HX  82
MONTICELLO *   MOSUNNY   84  61  45 SW12      29.90F HX  84
OELWEIN *      SUNNY     82  59  44 SW8G15    29.92F HX  82
WATERLOO       SUNNY     81  58  45 SE5       29.90S HX  81
$$

IAZ064-065-067-068-078-242300-
   EAST CENTRAL IOWA

CITY           SKY/WX    TMP DP  RH WIND       PRES   REMARKS
DAVENPORT      MOSUNNY   87  55  33 SW15G21   29.91F HX  85
IOWA CITY      PTSUNNY   83  63  50 S9        29.91F HX  84
MT. PLEASANT * CLOUDY    86  64  48 S8        29.91F HX  87
MUSCATINE *    MOSUNNY   88  61  40 SW8       29.90F HX  88
QUAD CITIES    MOSUNNY   87  58  37 S7        29.89F HX  86
$$

IAZ062-063-075>077-085>089-095>099-242300-
   SOUTHEAST IOWA

CITY           SKY/WX    TMP DP  RH WIND       PRES   REMARKS
BURLINGTON     MOSUNNY   81  66  60 S8        29.90F HX  83
FAIRFIELD *      N/A    N/A N/A N/A MISG        N/A
FORT MADISON * CLOUDY    82  64  54 SW10      29.91F HX  84
KEOKUK *       MOSUNNY   81  64  57 SW13G18   29.90F HX  82
OSKALOOSA *      N/A     84  61  45 SW12      29.90F HX  84
OTTUMWA        CLOUDY    82  63  52 S8        29.89F HX  83
WASHINGTON *   SUNNY     82  66  57 SW8       29.92F HX  85
$$

ABBREVIATIONS USED IN REMARKS
   TC - TEMPERATURES IN CELSIUS
  WCI - WIND CHILL INDEX
   HX - HEAT INDEX
  VSB - VISIBILITY
$$





USA.gov is the U.S. government's official web portal to all federal, state and local government web resources and services.